Terug naar catalogus

STARLINK-32529

ActiefCommunicatieVLEO
NORAD 62139·PAYLOAD·🇺🇸 United States

Gelanceerd Nov 30, 2024 vanaf Cape Canaveral Space Force Station

Loading…

Volgende Passages (komende 24 uur)

TLE

VersSource: CelesTrak SupGP

Epoch: Sep 15, 2026, 03:11 UTC

1 62139C 24224A   26258.13312500  .00008894  00000+0  32219-3 0  2589
2 62139  43.0016 168.4731 0001353 280.3953 323.4888 15.27568077    14

Volg STARLINK-32529 in realtime met AllMySat

Download on the App Store